COSMOS 2364 (GLONASS)

Satellite information

Favourite Embed

Satellite Type and Status

PAYLOADIN ORBIT

Key statistics

Satellite COSMOS 2364 (GLONASS) at a glance.

Uptime

9848

Days in orbit

Revolutions

≈ 2.1

Per day

Orbit

MEO

Medium Earth Orbit

Inclination

64.2

Latest

Satellite identification and parameters

Extended collection of information and parameters for COSMOS 2364 (GLONASS).

Object identification

Identified? True

Debris? False

Object name: COSMOS 2364 (GLONASS)

International designator: 1998-077A

Object number (NORAD): 25593

Object ID (CCSDS): 25593

Country: COMMONWEALTH OF INDEPENDENT STATES (CIS)

Current information (Y/N): Y

RCS size: LARGE

Orbital parameters

Period: 675.73 minutes

Inclination: 64.209 deg

SMA: 25507.964 km

Apoapsis: 19207.923 km

Periapsis: 19051.735 km

RAAN: 66.607 deg

Eccentricy: 0.00306154

Argument of periapsis: 54.0466 deg

Mean anomaly: 303.8405 deg

Mean motion: 2.13102759 rev/day

Mean motion (dot): -0.00000068 rev/day2

B* drag term: 0.0 1/REarth

Two-line elements (TLE)

Creation date: Dec. 15, 2025, 8:47 p.m.

Reference frame: TEME

Reference center: EARTH

Epoch: Dec. 15, 2025, 8:01 a.m. UTC

TLE line 0: 0 COSMOS 2364 (GLONASS)

TLE line 1: 1 25593U 98077A 25349.33447259 -.00000068 00000-0 00000-0 0 9990

TLE line 2: 2 25593 64.2090 66.6070 0030615 54.0466 303.8405 2.13102759209736

Live tracking on map

Real-time ground track for satellite COSMOS 2364 (GLONASS).

In-orbit conjunctions

There are no conjunctions computed for COSMOS 2364 (GLONASS), at the moment. Check back to stay up to date, as we update our databases every day.

Go to all conjunctions

Associated space launch

GLONASS navigation satellites

COSMOS 2364 (GLONASS) was lifted into orbit during the mission ‘Proton | Uragan 72 to 74’, on board a Proton space rocket.

The launch took place on Dec. 30, 1998, 6:35 p.m. from 200/39 (200L).

For more information about the launch, click the button.

Launch to space Proton | Uragan 72 to 74
Proton | Uragan 72 to 74

Agency: N/A

Status: Launch Successful

Launch date: Dec. 30, 1998, 6:35 p.m. UTC

Rocket: Proton

Launch pad: 200/39 (200L)

Location: Baikonur Cosmodrome, Republic of Kazakhstan

...

Latest news about this satellite

There are no fresh news available about this satellite. Check back as we update our databases every day.


Newsletter sign-up

Weekly statistics, charts and insights to help you stay on top of the space industry.